Simultaneous Nadir Overpasses (SNOs) Predictions

Prediction of SNOs between GOES-16 and AQUA Satellite Orbit:

Table of predicted SNOs for the next 14.0 days since TLE Epoch: 4/12/2019
Index Date Time (GOES-16) GOES-16 Lat,Lon AQUA Lat,Lon Distance(km) Time Diff (sec)
1 04/13/2019 18:29:43 -0.01, -75.20 0.40, -73.18 229.50 80
2 04/14/2019 06:50:58 0.01, -75.20 0.68, -78.34 356.96 80
3 04/16/2019 06:38:46 0.02, -75.21 0.05, -75.38 19.46 80
4 04/18/2019 06:23:53 0.02, -75.22 -0.59, -72.42 318.69 80
5 04/18/2019 18:45:16 0.02, -75.23 -0.46, -77.62 271.77 80
6 04/20/2019 18:35:43 0.02, -75.25 0.18, -74.66 67.19 80
7 04/22/2019 18:23:29 0.02, -75.27 0.76, -71.69 406.64 80
8 04/23/2019 06:44:45 -0.02, -75.28 0.31, -76.85 178.89 80
9 04/25/2019 06:29:52 -0.02, -75.31 -0.34, -73.90 161.27 80
10 04/25/2019 18:51:15 0.02, -75.32 -0.78, -79.08 428.16 80




NCC Satellite Simultaneous Nadir Overpasses (SNOs) Prediction Service
